Location: City of Moscow
(46.7306°N, 116.9989°W)
Time: 21:32:14
(UTC+00:00)

USA 234 - Pass Details

Date: 11 December 2025
Orbit: 1102 x 1106 km, 123.0° (Epoch: 04 January)

Event Time Altitude Azimuth Distance (km) Brightness Sun altitude
Rises 13:16:27 0° 72° (ENE) 3,929 7.2 -20.7°
Reaches altitude 10° 13:19:07 10° 64° (ENE) 2,971 6.2 -20.3°
Maximum altitude 13:24:58 36° 1° (N) 1,675 4.1 -19.3°
Enters shadow 13:28:04 24° 315° (NW) 2,122 4.3 -18.8°
